RH
12 7 4 4 4 4 4 3 3 3 3 3 2 2 2 2 2 3 3 5 5 4 5 8 8 7 6 7 8 11 10 8 14 38 59 54 40 31 32 36 36 34 31 28 25
9 4 6 5 4 4 3 3 3 2 2 2 2 1 1 2 2 4 4 5 5 5 4 6 9 10 8 7 7 8 7 9 14 31 57 64 56 45 32 32 37 41 37 34 28
4 6 5 4 4 4 4 3 3 3 3 3 3 2 1 2 2 3 4 4 4 4 4 4 5 6 8 8 8 6 6 10 14 16 40 57 66 61 50 36 36 42 47 44 36
6 6 4 6 6 5 4 4 3 3 3 3 3 2 2 2 2 3 2 3 4 6 6 5 5 4 4 6 7 7 6 10 15 14 16 50 64 69 66 59 49 41 39 44 46
11 8 6 11 8 6 5 3 3 3 3 2 2 2 2 2 3 6 5 5 5 6 7 8 8 7 7 7 8 7 8 11 18 16 14 17 53 72 74 76 71 62 50 43 44
22 17 8 11 13 7 5 4 3 3 3 3 2 2 3 3 5 6 9 12 12 12 11 10 10 11 11 9 11 13 10 13 17 16 15 14 18 52 75 83 86 82 74 63 51
24 19 8 10 13 9 5 4 4 3 3 3 3 3 3 7 6 9 11 16 18 18 17 15 14 16 12 11 12 18 19 17 16 17 15 13 14 19 44 77 90 93 89 80 72
29 20 12 11 14 9 5 5 4 3 3 3 3 4 4 6 6 7 9 12 20 23 22 19 18 27 23 22 13 17 22 19 16 16 17 15 12 12 18 31 55 81 94 96 90
31 26 12 15 12 7 6 4 4 4 3 3 4 4 8 9 8 9 9 10 12 13 15 18 16 37 45 51 52 21 20 21 16 15 15 18 15 12 13 14 19 31 50 61 73
35 21 15 15 10 7 6 4 4 4 4 4 4 7 10 11 11 12 12 11 12 12 13 18 18 46 34 37 75 31 24 22 18 16 15 16 18 11 11 13 16 16 22 32 38
33 27 19 13 9 7 6 4 4 4 4 4 8 10 12 24 19 18 15 15 15 15 17 22 24 37 27 24 21 23 29 28 25 21 20 17 17 15 10 10 13 16 19 26 33
38 23 16 12 9 8 6 4 4 4 4 7 10 16 21 38 49 40 21 19 33 23 21 40 49 62 39 34 29 25 31 31 29 25 22 20 18 18 14 9 9 9 11 16 22
40 18 14 12 10 10 6 4 4 5 6 8 14 22 34 43 59 75 45 34 82 82 63 43 82 76 60 57 64 57 42 42 36 32 26 23 20 18 17 14 10 8 8 8 10
32 19 13 13 12 8 5 5 5 6 7 12 23 36 49 50 83 84 100 99 86 97 82 55 87 100 73 47 44 52 56 51 40 34 28 25 21 19 19 18 14 11 9 8 7
26 17 14 14 11 7 5 5 6 8 9 24 21 41 36 65 81 99 60 80 98 100 60 95 96 98 82 65 64 62 64 59 49 37 29 26 23 20 20 20 18 14 11 9 8
29 20 14 13 10 7 5 5 7 10 13 19 33 56 62 77 82 99 90 86 90 100 78 54 71 86 84 76 69 67 63 61 55 42 29 24 24 24 22 19 17 16 12 10 8
28 18 15 12 10 7 6 6 10 13 12 19 37 62 70 97 93 96 100 100 100 100 96 75 82 77 70 65 59 50 54 60 48 38 30 27 26 26 23 19 17 16 13 11 9
22 19 13 10 10 6 6 10 12 12 14 34 48 79 59 97 86 96 100 99 100 100 100 100 82 66 67 61 74 38 30 28 28 28 28 25 22 20 20 18 16 13 12 11 10
24 22 18 12 10 6 9 9 13 12 18 46 100 81 58 82 86 86 98 100 100 100 96 93 80 67 75 66 72 66 62 44 28 24 22 19 20 15 13 12 14 12 10 9 10
23 19 17 12 8 6 10 11 16 17 34 86 91 67 72 99 98 75 90 100 100 100 100 99 86 71 73 88 80 61 85 50 36 26 20 18 14 12 13 12 11 10 10 11 10
27 19 14 11 6 8 10 12 16 29 63 92 99 83 82 100 100 94 100 100 100 96 99 96 82 96 85 58 57 55 52 46 39 28 18 15 16 17 16 17 16 15 14 12 12
26 19 11 8 8 9 10 14 22 47 92 100 100 96 86 100 100 100 100 100 100 100 100 100 75 79 92 96 56 58 44 37 35 33 23 26 26 18 17 15 14 14 14 14 14
29 21 9 6 7 10 14 22 32 56 98 100 100 100 100 100 100 100 100 100 100 99 99 100 92 93 91 68 74 53 41 39 34 44 46 34 19 16 16 16 15 15 14 14 14
33 16 8 6 7 11 18 29 53 57 99 100 100 100 100 100 100 100 100 100 100 100 100 100 98 100 99 98 83 62 56 66 51 39 30 21 22 20 17 16 15 14 13 11 11
24 10 7 6 8 14 26 40 61 62 92 100 93 100 92 93 99 100 99 100 97 100 100 97 100 99 93 100 93 78 49 36 31 24 19 18 19 17 16 14 14 13 13 13 12
15 8 7 8 10 18 40 56 59 62 100 100 82 91 88 72 72 97 92 94 100 100 91 89 100 96 96 73 81 76 47 42 28 18 20 20 19 17 16 15 15 14 13 13 14
9 8 7 9 13 24 39 54 52 93 93 96 84 95 86 78 57 76 87 69 93 100 91 98 99 94 62 31 63 46 30 20 18 18 20 21 21 19 16 14 13 11 12 12 14
Wind_Speed
23 23 25 28 32 37 41 47 52 57 63 68 69 69 68 66 65 66 65 67 66 67 65 63 62 60 58 56 53 51 54 52 49 44 39 41 43 43 41 38 37 36 34 34 33
26 23 31 33 35 41 46 52 58 63 67 71 67 66 68 69 70 72 73 68 69 68 70 68 66 65 65 61 60 58 57 53 48 47 44 44 45 46 45 42 40 38 38 36 37
25 30 34 36 41 47 50 53 61 65 70 69 66 67 68 66 66 62 59 57 53 53 59 63 66 68 70 68 64 61 59 53 48 48 48 48 49 48 47 46 42 40 39 39 39
29 34 37 41 46 49 52 58 62 67 67 66 66 68 68 59 50 50 52 46 44 44 48 52 53 57 65 70 66 62 56 52 51 48 49 50 51 51 50 47 45 44 43 40 39
35 37 41 49 51 52 56 63 64 65 65 66 67 68 65 59 50 53 52 47 45 44 45 45 46 49 51 60 63 64 57 54 53 52 50 50 53 54 52 49 47 45 44 42 41
37 42 46 49 55 56 61 64 66 67 68 70 70 68 68 66 57 52 50 48 46 44 43 44 41 40 44 53 62 62 61 58 56 54 53 52 53 54 53 51 48 46 45 44 44
38 43 47 53 58 62 63 68 70 68 74 71 73 73 71 59 58 51 48 44 45 45 45 46 44 43 42 45 56 63 63 62 58 56 55 53 52 50 51 50 48 47 47 47 47
41 47 49 56 60 65 64 70 68 70 73 72 75 73 67 59 54 51 48 44 42 44 45 45 45 46 47 45 50 61 63 62 59 57 54 53 49 49 51 51 51 49 48 48 48
43 50 52 58 64 65 66 68 70 71 73 75 73 64 55 51 44 40 37 38 42 42 43 47 48 49 50 46 47 56 62 60 57 55 55 51 50 50 51 51 52 51 50 48 48
47 52 55 62 65 67 72 69 68 72 74 74 63 52 43 36 35 34 32 31 31 35 39 43 48 46 50 49 43 50 55 55 55 55 53 50 49 49 50 51 52 51 49 46 45
49 53 58 64 66 70 72 70 68 67 73 62 49 43 38 31 32 27 25 22 28 31 34 38 40 43 46 44 39 44 53 49 50 51 51 50 48 47 48 49 51 51 50 48 46
53 54 60 66 69 72 73 73 75 73 68 55 47 35 31 25 24 20 18 17 21 23 28 33 34 37 42 41 37 41 45 50 50 50 50 49 48 47 44 44 45 47 48 49 48
53 56 62 67 70 74 74 74 72 71 59 51 39 34 29 25 20 17 12 12 11 18 26 33 34 37 38 36 35 38 41 42 45 47 47 46 46 43 43 42 43 44 44 45 46
52 57 64 69 72 73 74 72 72 67 55 45 33 28 24 24 15 12 4 9 6 11 15 26 32 34 33 33 33 34 36 38 40 42 43 43 42 40 40 40 41 41 42 44 45
54 61 66 70 74 72 70 70 69 62 57 36 31 24 24 18 11 11 9 15 9 8 13 20 25 25 26 26 29 31 32 33 35 36 37 39 39 37 37 36 36 38 40 42 42
55 62 67 71 73 73 70 67 64 59 47 35 22 19 15 15 13 10 1 12 9 11 9 17 22 23 23 24 27 28 29 30 31 33 36 35 33 31 32 34 36 36 38 39 40
58 65 69 73 73 70 68 63 61 56 47 30 18 11 10 10 10 10 2 7 9 12 13 16 18 21 20 20 20 23 26 27 29 31 30 30 29 28 33 36 36 37 38 38 39
61 67 70 72 75 68 66 62 59 54 40 23 15 11 9 8 6 5 2 11 13 13 14 16 19 22 20 19 18 19 22 22 24 24 23 25 26 28 31 34 36 36 36 36 37
64 69 71 75 73 67 63 63 58 52 32 13 7 6 10 8 3 2 3 3 17 8 16 12 18 19 18 19 20 19 21 20 19 21 23 24 25 27 30 30 29 31 33 34 35
65 69 73 74 70 68 63 61 54 41 20 11 5 4 5 5 5 5 4 5 5 15 20 12 11 19 21 20 19 18 18 20 20 21 21 22 24 25 25 24 25 27 28 30 32
66 71 73 72 71 68 62 57 46 29 12 10 5 5 2 2 2 4 2 9 9 10 16 18 11 10 18 23 21 20 19 18 19 21 21 21 20 19 20 22 22 23 26 28 29
67 71 72 72 68 68 61 52 37 20 4 7 7 5 4 4 2 2 5 6 7 1 14 20 16 18 19 18 23 20 19 19 20 18 19 18 17 17 18 19 20 21 23 25 27
68 70 71 71 68 63 56 45 29 13 8 7 4 5 6 8 6 0 3 4 5 6 16 15 15 16 21 23 22 21 19 16 16 17 17 16 15 13 14 15 16 16 17 19 21
69 69 69 71 70 61 48 36 22 9 6 5 4 4 5 5 7 6 2 5 6 10 15 14 16 21 15 13 18 16 15 16 15 13 13 13 13 15 16 15 15 17 19 22 25
68 68 70 72 68 56 42 31 17 6 6 3 4 3 5 6 5 8 4 1 10 12 9 19 16 18 14 14 16 15 17 18 16 14 14 14 14 13 13 14 15 16 19 22 24
66 67 68 71 65 49 37 24 15 4 10 3 5 4 6 7 8 7 8 3 7 15 10 15 18 16 14 12 14 16 15 15 13 13 12 12 11 12 12 14 16 19 21 23 26
65 66 67 69 58 44 30 19 12 5 8 9 4 5 9 7 8 11 13 6 3 14 14 12 8 10 8 10 14 15 14 14 13 13 13 12 12 12 15 17 19 22 25 27 29
Wind_Direction
317 316 321 328 330 331 330 330 328 323 322 320 315 307 299 292 284 277 273 271 267 265 263 261 260 259 259 257 252 248 246 246 242 235 230 233 238 238 238 235 232 232 229 228 226
316 319 327 325 327 330 333 331 328 325 322 316 309 306 299 293 288 285 282 280 275 270 263 258 256 255 254 253 252 248 245 246 245 240 231 228 232 236 236 236 234 235 234 230 230
317 322 323 326 329 327 328 332 327 326 320 316 309 305 299 296 291 285 281 278 274 269 264 257 253 251 252 251 251 249 246 245 243 240 235 229 229 231 233 234 234 232 233 235 233
314 321 321 327 325 327 329 328 327 325 320 314 309 305 300 298 295 286 282 277 270 266 264 259 253 246 246 248 249 247 246 242 239 239 236 232 229 229 229 230 232 233 235 235 238
313 315 317 323 321 326 329 329 327 322 315 311 307 300 298 295 297 286 284 279 270 262 257 251 250 248 241 237 237 242 240 238 234 233 235 233 230 230 229 227 229 231 234 236 237
315 313 314 317 322 327 327 328 325 320 311 307 304 300 299 300 291 285 278 272 265 258 252 248 247 248 246 235 230 229 229 231 230 230 229 231 231 231 231 230 228 228 230 233 235
318 311 313 321 325 324 325 329 326 318 312 309 304 301 299 299 290 284 274 264 258 255 251 248 249 248 247 242 231 227 222 222 225 229 228 228 230 232 233 234 231 230 229 230 232
316 312 315 320 324 323 327 330 323 316 313 310 306 305 303 295 289 283 274 264 254 251 248 246 247 247 246 242 232 226 224 220 221 226 229 227 227 229 232 233 233 230 229 229 230
317 315 317 322 322 324 329 330 322 316 313 313 311 308 301 297 293 285 276 264 256 252 247 244 241 242 242 239 235 226 224 222 221 223 228 230 227 229 229 231 232 232 231 230 232
318 316 319 321 322 327 331 327 323 319 317 316 315 312 309 309 297 288 279 265 253 249 243 239 239 236 237 234 234 228 223 220 220 222 224 227 228 228 230 230 232 233 232 231 232
317 317 322 324 325 328 328 326 323 322 321 320 320 318 316 315 302 296 283 260 242 238 236 237 236 234 233 235 234 230 225 224 223 223 223 224 227 229 228 229 232 235 235 234 234
316 320 323 324 326 326 326 326 326 328 327 325 326 325 327 327 314 311 279 257 246 246 237 238 231 223 220 221 225 227 224 226 226 226 225 225 225 229 230 230 232 234 237 238 237
317 322 324 325 326 326 326 328 328 328 328 326 324 328 327 328 319 326 282 249 246 261 248 232 217 214 213 216 217 221 220 223 224 225 224 225 226 228 230 231 232 233 236 238 238
318 324 325 323 325 326 328 330 328 329 329 328 321 323 328 328 319 325 227 221 264 271 234 209 205 209 212 216 219 220 220 223 225 225 224 223 225 226 229 230 233 235 236 238 239
324 324 322 323 325 327 329 331 327 329 331 325 319 323 324 340 322 320 266 234 234 279 191 210 208 211 213 215 218 219 221 224 226 225 223 222 223 222 226 229 232 235 237 239 240
326 323 323 325 327 328 331 331 329 331 333 321 312 323 329 331 319 330 324 207 206 196 191 201 211 210 211 215 219 219 219 222 223 225 224 222 223 222 232 234 236 237 238 240 241
325 323 325 326 327 329 334 331 330 333 329 320 303 304 323 321 324 338 182 145 204 210 185 202 204 199 203 208 212 211 211 210 216 219 219 221 227 231 235 236 236 237 238 239 240
322 323 327 328 329 334 335 331 331 331 327 316 308 314 330 324 340 350 351 212 205 209 211 219 216 214 208 201 204 204 207 212 216 218 219 225 231 233 233 235 234 233 233 235 236
322 324 327 330 332 337 335 331 330 331 324 313 285 320 322 306 320 311 351 251 193 200 221 219 205 203 200 203 209 210 211 214 219 219 222 226 228 229 228 229 225 227 228 231 233
325 326 328 331 333 336 334 333 332 330 320 307 258 299 311 289 329 291 291 204 216 186 203 206 216 212 211 209 209 212 212 217 217 222 225 225 225 226 225 224 221 220 222 226 230
326 327 330 333 336 336 335 333 333 327 323 319 310 305 320 113 43 22 224 206 210 201 211 216 205 202 206 210 209 209 216 220 221 220 223 226 224 222 220 219 216 217 221 225 229
326 330 332 334 338 336 333 336 336 323 224 271 316 299 235 161 128 105 92 202 194 263 208 210 206 221 212 205 207 212 215 215 216 220 222 222 218 215 212 216 216 218 221 224 227
327 331 333 334 339 336 335 336 339 319 224 247 302 283 237 231 212 129 136 134 226 233 199 181 201 202 201 204 202 206 208 211 212 214 212 211 206 203 207 213 221 229 236 244 249
328 331 335 336 339 337 337 338 333 315 214 247 270 274 253 259 219 227 146 196 195 182 194 190 211 202 200 209 212 212 212 213 212 212 213 205 201 206 214 225 231 238 244 249 253
329 333 337 338 340 337 339 340 331 282 206 237 266 269 265 279 230 214 182 136 199 193 193 200 186 195 206 193 189 198 206 205 207 204 200 197 203 215 224 235 245 253 257 259 261
331 337 338 338 340 339 341 339 335 246 198 208 250 287 290 264 231 222 193 241 185 190 191 183 207 214 223 225 208 201 201 205 210 203 195 201 216 234 249 260 265 268 271 270 269
333 337 338 338 339 340 341 338 329 179 218 223 256 310 304 290 237 211 200 209 146 181 197 184 179 171 193 195 197 197 197 198 200 205 204 209 235 263 274 279 282 283 281 277 270